RH
17 16 14 15 16 21 25 30 35 43 63 70 66 65 75 76 87 98 92 80 66 59 64 38 82 64 46 24 32 33 48 52 56 57 45 49 51 54 52 51 52 43 38 40 39
18 16 15 15 20 28 31 42 48 45 52 65 73 82 84 89 91 99 92 87 75 60 73 43 56 64 89 40 45 43 39 40 54 59 56 42 50 48 47 46 47 42 36 36 34
20 15 17 17 22 30 38 50 58 57 53 60 73 84 85 89 96 94 98 96 75 77 72 56 78 77 99 65 63 48 32 50 50 59 60 48 43 44 47 46 43 38 35 33 31
21 16 19 20 20 29 42 48 59 62 63 67 79 99 99 99 99 90 84 93 79 88 85 73 82 98 99 92 71 55 36 42 58 59 65 59 48 51 51 44 41 39 38 35 25
20 16 20 23 21 23 39 48 61 67 63 69 68 86 99 92 96 90 93 90 79 87 95 93 76 79 95 93 87 66 43 44 57 60 60 62 56 52 51 48 45 40 40 34 33
18 19 18 24 24 20 33 49 56 69 77 76 75 77 98 96 87 81 94 91 87 65 91 94 89 85 80 94 96 83 55 38 54 58 54 61 62 55 49 49 46 43 44 36 33
16 21 20 24 23 25 23 41 53 63 72 73 72 79 79 82 86 92 89 96 89 63 78 86 90 95 98 93 94 93 65 39 45 58 51 50 54 54 50 48 47 42 45 36 37
17 20 22 20 23 25 24 24 46 56 64 66 73 76 97 86 70 97 99 99 93 77 79 78 88 91 94 99 92 92 77 53 37 54 50 49 47 46 51 51 45 45 45 37 36
13 20 22 23 21 23 26 22 33 49 60 66 70 70 87 92 87 76 99 100 97 95 96 94 86 84 89 98 91 89 71 56 34 47 48 46 50 50 42 48 47 50 42 37 30
10 15 21 23 24 24 26 27 23 38 48 59 66 68 70 83 98 93 77 94 93 91 94 93 96 93 89 96 88 86 72 56 44 41 54 43 59 46 49 45 55 48 42 36 17
11 11 17 24 24 26 27 28 24 25 43 54 62 63 64 64 79 97 93 76 86 93 96 94 88 77 78 78 84 88 72 59 51 60 65 49 62 56 46 51 52 49 42 26 16
16 9 13 20 24 24 26 28 26 24 32 48 57 60 62 61 60 68 94 100 90 68 80 91 82 86 87 82 90 83 71 66 59 60 70 73 69 61 62 57 45 46 35 20 17
18 16 9 15 22 24 25 26 27 21 25 39 45 50 55 58 58 63 66 93 99 99 95 97 94 96 99 94 96 87 69 64 59 58 60 65 61 63 58 56 51 49 27 23 21
12 18 14 11 18 23 25 27 25 23 25 28 39 46 55 54 56 59 61 69 96 98 99 96 99 99 99 92 89 86 65 57 60 54 73 59 63 47 54 54 43 33 31 24 18
4 12 18 12 13 22 23 25 24 26 40 24 32 36 46 51 55 56 58 64 79 88 92 99 99 98 90 91 88 69 65 53 56 57 58 56 46 43 41 38 37 35 28 15 14
7 5 14 17 13 16 23 24 25 26 17 19 25 28 32 41 48 50 50 59 70 77 96 98 98 99 93 84 76 67 65 69 51 53 60 47 44 37 33 34 28 26 19 13 15
14 8 9 16 16 13 20 24 28 23 17 15 19 22 23 26 29 28 37 44 56 68 72 89 93 91 96 89 76 72 58 60 67 68 72 40 39 34 23 24 22 23 20 15 20
16 15 8 11 19 16 15 22 27 19 16 17 17 19 21 22 23 31 28 29 44 54 63 57 69 86 95 85 69 59 54 54 74 83 66 43 41 30 26 21 15 14 15 23 22
16 17 15 9 15 19 18 17 17 18 19 18 18 21 23 22 24 29 28 27 36 52 50 53 51 73 83 91 74 64 64 54 47 48 45 35 30 27 22 18 15 16 17 14 12
22 17 16 14 14 16 19 17 15 16 19 19 20 22 23 24 23 23 30 31 35 44 37 48 45 69 82 86 71 59 69 48 46 63 57 42 31 25 16 13 13 13 10 14 13
23 25 21 16 14 14 17 18 16 15 17 20 23 25 24 23 22 22 25 30 28 27 26 41 44 47 63 73 70 60 63 67 40 40 67 65 29 13 13 13 12 11 12 13 16
31 30 25 24 18 14 14 18 17 17 16 18 19 26 31 27 25 23 22 23 28 29 28 31 46 39 45 44 57 65 42 40 37 33 44 56 30 17 18 14 13 12 11 14 19
26 36 32 28 24 17 15 19 20 19 18 18 17 17 23 32 26 30 32 24 23 24 30 31 38 34 39 39 38 36 32 30 31 35 30 45 21 19 24 15 13 12 13 13 16
29 34 31 30 24 19 18 18 20 20 19 18 18 17 17 21 32 30 30 34 34 31 26 31 34 32 31 29 33 36 33 32 32 31 29 34 24 15 16 14 13 16 12 14 16
31 31 32 31 25 22 24 20 22 24 22 21 18 18 18 18 19 21 25 30 34 38 35 34 31 29 26 26 28 31 33 30 31 27 29 19 24 15 12 14 15 16 15 12 12
31 31 31 30 28 26 26 23 19 21 25 25 22 20 19 18 18 18 19 20 20 18 30 31 31 28 26 28 31 29 24 24 32 32 27 25 21 15 15 15 13 14 15 15 15
32 32 32 34 31 30 26 24 23 21 21 23 26 27 24 22 22 20 20 21 22 22 23 25 24 25 20 18 22 24 10 14 18 17 19 22 10 13 14 16 17 17 16 15 16
Wind_Speed
15 13 16 19 20 20 22 24 26 23 19 13 10 9 5 3 5 6 6 5 6 13 17 20 19 18 19 27 35 39 31 37 34 37 41 33 28 26 26 21 19 18 12 12 11
13 12 15 18 20 21 24 25 26 23 20 15 10 7 3 1 5 7 7 6 7 12 16 20 19 16 17 25 34 38 41 35 28 32 36 36 34 28 27 25 21 18 14 13 12
11 11 15 18 19 23 25 27 24 22 20 15 8 7 3 2 6 8 10 7 9 11 14 19 19 14 14 21 32 37 42 27 35 27 31 35 33 30 28 27 21 15 13 12 12
11 10 14 16 20 24 26 28 22 22 19 16 11 7 5 3 2 7 8 8 11 12 11 17 22 19 16 19 28 33 40 34 28 28 26 33 30 30 27 24 21 17 13 12 11
11 9 12 16 19 23 26 27 24 21 17 13 11 3 2 4 6 4 6 9 12 15 11 14 19 23 18 17 22 32 35 35 27 26 26 34 42 28 24 22 21 18 18 12 13
13 10 11 15 18 20 23 26 24 26 19 15 11 6 3 3 8 6 4 9 10 15 12 9 19 18 17 16 18 22 32 36 29 22 27 32 38 36 30 26 23 19 16 14 15
14 12 11 12 16 18 20 22 26 22 22 16 13 14 7 8 6 7 6 7 12 13 14 13 16 18 12 16 19 16 22 32 32 22 24 28 30 35 35 28 25 22 18 17 17
14 13 12 11 13 16 17 20 24 25 23 17 14 20 18 11 6 6 6 10 12 11 11 12 12 17 17 17 14 11 13 25 35 21 22 23 29 31 33 33 29 24 21 19 18
15 12 12 12 12 13 16 17 19 22 20 21 16 16 24 21 7 7 9 8 12 10 9 10 12 14 18 15 11 17 14 25 32 24 21 25 31 27 29 30 29 26 22 19 18
17 15 13 11 12 12 14 15 15 19 21 11 21 10 21 26 21 8 9 10 11 12 10 11 11 12 15 14 12 21 17 23 24 27 22 27 26 33 29 27 27 25 22 19 17
19 16 15 12 9 11 12 12 13 13 17 15 14 16 19 21 21 23 10 7 12 11 12 14 15 15 12 13 11 22 22 18 21 18 23 27 28 26 36 33 29 27 23 20 16
18 18 15 14 9 8 11 10 11 9 10 12 11 14 14 16 19 18 19 6 2 8 12 13 15 11 13 16 20 14 24 14 20 12 20 24 30 30 33 34 39 27 24 20 19
16 17 16 14 11 8 8 10 10 10 7 9 9 11 14 11 14 17 16 13 8 2 5 8 9 11 11 14 17 22 23 20 16 14 16 22 24 33 36 35 32 35 25 22 19
17 17 17 15 13 10 8 9 9 9 5 6 8 8 12 11 11 15 16 10 10 1 3 4 9 11 14 14 15 15 19 21 18 14 12 17 9 28 32 33 33 30 28 25 23
17 17 17 17 14 11 10 9 7 6 4 8 7 9 9 9 9 9 11 13 8 8 8 2 5 12 11 9 17 17 17 22 19 17 12 16 8 22 26 31 33 31 28 25 24
16 15 15 16 16 14 10 10 7 3 4 4 5 6 7 7 7 7 7 7 6 4 5 2 3 6 13 8 12 11 17 17 13 16 8 16 16 17 26 34 28 30 28 24 24
18 18 15 13 15 15 13 10 6 4 4 3 5 5 6 6 7 8 7 4 1 0 2 3 4 1 16 12 11 12 21 4 0 1 4 16 11 28 12 22 24 28 28 28 28
17 18 18 16 13 13 13 11 5 5 6 5 5 5 5 6 4 6 7 5 3 1 3 3 2 3 8 13 5 12 13 6 6 3 3 7 12 24 16 29 20 28 31 30 29
18 18 17 18 16 15 11 7 5 8 7 7 8 7 5 4 4 5 3 4 4 4 2 2 2 6 14 13 4 10 13 6 3 4 1 9 19 14 10 19 25 25 25 33 34
18 20 19 18 16 17 15 11 9 11 10 8 7 6 4 5 4 4 3 2 2 5 7 3 1 8 9 18 9 4 12 7 4 4 3 5 12 21 13 18 23 29 31 26 32
20 22 21 19 19 18 19 15 14 11 10 8 7 9 11 8 6 5 4 4 4 5 5 6 4 4 14 10 15 9 15 16 5 4 4 1 6 9 17 25 19 22 25 29 25
25 24 22 22 21 21 19 17 15 14 11 11 10 11 10 10 10 6 5 6 5 6 4 6 6 4 11 12 19 17 16 18 10 5 5 2 11 14 9 15 26 24 25 27 28
27 28 28 27 25 24 21 20 18 17 14 11 9 10 9 9 6 9 8 6 7 7 5 5 5 3 4 13 18 22 21 19 19 21 13 4 6 3 3 4 6 7 20 21 25
28 26 27 28 26 25 23 23 22 20 16 17 16 13 12 12 12 8 7 7 8 8 9 8 11 10 10 3 9 17 24 23 26 20 25 32 27 17 8 11 20 23 11 9 15
30 30 28 25 23 19 21 22 17 14 17 16 17 15 14 11 11 15 13 14 13 12 12 12 13 14 15 17 18 17 18 21 30 33 26 34 38 35 29 31 31 27 27 20 19
33 33 32 33 31 30 26 28 26 22 23 23 20 17 15 16 13 13 10 10 11 11 13 16 12 13 16 16 19 25 25 27 28 30 37 39 42 35 34 32 28 26 24 22 21
37 35 36 35 33 33 32 28 27 24 22 22 21 21 20 15 17 18 17 16 15 12 11 14 11 8 6 10 11 18 25 30 33 35 35 37 33 35 32 28 26 25 26 25 24
Wind_Direction
7 357 356 359 358 0 359 360 358 358 356 349 343 321 312 254 205 228 219 259 229 204 199 197 205 208 218 206 199 201 200 208 212 213 211 204 203 195 194 200 206 204 212 213 203
1 1 4 7 7 8 9 3 358 360 359 353 3 6 360 193 222 217 239 250 214 195 194 197 208 203 216 201 201 201 206 208 207 214 214 207 210 211 201 199 207 210 216 205 212
0 5 10 12 13 16 14 5 1 359 359 359 10 24 350 253 229 228 244 250 197 189 197 193 190 208 212 206 202 203 209 207 205 208 213 207 215 216 217 205 200 205 203 214 226
1 5 13 17 17 20 16 12 10 1 5 7 9 27 15 343 294 256 246 226 201 183 191 196 197 201 197 205 206 207 210 209 201 203 208 200 211 210 209 212 197 199 220 233 240
2 3 11 18 19 21 18 18 18 14 10 7 3 337 269 320 315 255 243 212 200 187 189 200 204 207 209 215 215 213 211 208 199 203 198 198 203 217 211 204 208 220 223 229 217
360 358 4 14 19 20 21 21 14 18 15 5 360 360 310 317 275 302 171 198 194 194 203 207 200 200 210 219 215 223 215 207 200 196 197 199 201 210 219 219 215 220 225 220 217
359 359 354 5 15 17 19 16 21 16 21 20 19 14 352 290 289 320 216 205 187 197 198 201 201 205 220 220 218 230 223 212 207 204 201 200 204 212 215 218 219 222 221 217 222
3 358 350 351 5 12 15 12 15 19 27 30 19 28 18 349 294 214 198 220 201 197 201 212 215 212 218 206 210 208 223 213 205 206 209 205 196 205 212 218 221 220 220 222 235
5 358 348 345 349 1 10 9 13 15 18 35 36 30 24 20 2 249 221 202 199 201 208 208 213 219 222 233 204 195 209 209 209 211 217 209 212 196 207 209 215 218 217 225 232
4 358 355 342 341 344 357 5 4 11 16 23 33 26 28 25 30 31 220 219 205 219 232 223 224 218 217 206 220 200 208 211 197 206 218 213 211 213 201 207 211 215 217 224 225
2 2 355 348 334 332 337 352 354 5 10 20 30 37 29 26 31 34 30 225 221 216 221 237 238 234 232 237 231 214 208 205 190 205 215 213 207 214 213 209 212 214 217 222 226
0 0 356 349 338 327 326 333 344 342 2 16 15 19 24 25 24 23 25 22 22 239 232 237 241 239 231 217 219 209 212 200 202 207 202 207 208 211 209 211 219 224 222 224 223
354 359 358 350 345 331 322 325 332 339 330 358 4 15 16 17 17 18 18 24 25 222 231 233 247 208 222 201 214 211 216 204 203 189 190 192 204 203 208 209 209 218 219 221 223
346 352 356 353 349 336 322 322 330 334 301 338 4 9 12 9 12 12 6 8 15 105 37 252 216 191 179 196 198 217 211 201 204 196 181 185 222 206 209 212 214 216 225 228 222
343 343 349 351 346 342 326 323 323 328 360 340 351 356 358 2 357 1 6 19 12 360 20 71 175 168 142 189 200 193 183 201 218 222 191 215 245 215 220 223 222 225 232 233 229
337 337 338 344 344 339 329 323 316 317 270 327 328 347 355 347 343 348 355 359 26 21 48 80 88 175 154 140 174 178 195 213 204 205 197 203 217 241 228 228 226 228 231 234 236
329 332 331 334 338 339 331 327 301 240 315 282 310 318 332 331 325 322 316 342 325 228 278 78 89 356 173 148 137 178 181 134 21 231 215 224 236 238 246 236 239 240 243 244 239
324 326 327 323 328 332 331 326 267 291 283 292 290 301 303 329 318 334 317 286 303 230 207 283 185 165 169 165 150 184 179 176 186 171 211 197 236 240 249 244 244 234 232 234 237
321 318 321 321 316 318 320 308 278 304 294 288 288 277 272 287 308 323 322 283 269 214 240 263 263 193 171 176 174 176 176 243 136 140 144 226 251 251 239 251 244 246 236 235 235
324 318 314 312 305 307 302 291 285 295 286 281 289 276 267 277 284 308 282 257 229 230 272 259 257 197 182 175 184 200 179 249 225 122 219 252 249 242 254 252 243 243 244 244 239
311 312 314 308 300 297 289 282 289 286 277 272 271 269 286 284 261 272 238 258 250 276 247 254 237 225 205 200 205 211 204 234 266 237 167 209 250 249 225 239 244 243 241 237 243
308 304 302 297 292 287 284 284 283 283 270 266 274 272 265 268 288 259 239 232 250 254 260 237 239 246 209 231 200 217 228 227 243 238 232 214 270 293 282 248 241 243 236 237 238
303 303 296 287 276 278 275 273 275 274 266 263 258 271 274 265 252 264 263 244 247 247 231 222 226 192 205 238 228 223 228 236 245 252 249 197 241 336 217 110 61 310 250 246 239
301 298 294 288 277 270 266 268 267 265 267 260 260 261 264 265 255 257 254 266 247 243 234 239 238 230 206 213 216 231 239 234 228 241 251 247 257 245 232 281 298 306 281 261 246
293 289 287 275 274 275 267 259 257 263 262 264 264 262 257 255 262 259 260 263 260 248 241 239 254 256 257 256 258 251 253 250 246 246 242 264 258 260 257 270 273 272 270 267 253
289 283 276 274 269 266 264 263 261 262 262 264 266 265 259 253 256 272 268 259 265 256 241 244 260 268 273 264 258 262 255 249 252 251 251 256 263 256 260 267 272 271 269 267 262
280 276 269 266 263 262 261 265 266 261 260 258 257 259 259 262 252 254 259 260 254 257 254 244 246 259 265 271 277 276 262 251 253 255 255 256 269 283 278 275 273 270 265 262 259